Terug naar catalogus

YAOGAN-39 01C

ActiefMilitairVLEO
NORAD 57731·PAYLOAD·🇨🇳 China

Gelanceerd Aug 31, 2023 vanaf Xichang Satellite Launch Center

Loading…

Volgende Passages (komende 24 uur)

TLE

VersSource: Space-Track

Epoch: Sep 14, 2026, 13:58 UTC

1 57731U 23130E   26257.58239631  .00004487  00000-0  22397-3 0  9990
2 57731  34.9937 315.3083 0009702  38.0663 322.0734 15.16889984169047

Volg YAOGAN-39 01C in realtime met AllMySat

Download on the App Store